timestamp,wind_dir_avg,wind_spd_avg,wind_spd_max_dir,wind_spd_gust,battery_voltage,lat,long
2020-12-21 00:04:01+00:00,344.0,2.39,345.0,2.89,12.57,47.59359,-54.27349
2020-12-21 00:14:01+00:00,355.0,2.57,349.0,3.12,12.49,47.59359,-54.27349
2020-12-21 00:24:01+00:00,7.0,2.19,16.0,2.75,12.49,47.59359,-54.27349
2020-12-21 00:34:01+00:00,357.0,2.1,4.0,2.8,12.49,47.59359,-54.27349
2020-12-21 00:44:01+00:00,343.0,1.9,357.0,2.47,12.49,47.59359,-54.27349
2020-12-21 00:54:01+00:00,42.0,2.37,48.0,2.73,12.49,47.59359,-54.27349
2020-12-21 01:04:01+00:00,3.0,1.61,3.0,2.2,12.49,47.59359,-54.27349
2020-12-21 01:14:01+00:00,15.0,1.6,15.0,2.23,12.49,47.59359,-54.27349
2020-12-21 01:24:01+00:00,12.0,1.91,24.0,2.3,12.49,47.59359,-54.27349
2020-12-21 01:34:01+00:00,23.0,2.16,36.0,3.03,12.49,47.59359,-54.27349
2020-12-21 01:44:01+00:00,23.0,1.95,26.0,2.39,12.49,47.59359,-54.27349
2020-12-21 01:54:01+00:00,13.0,2.46,15.0,2.98,12.49,47.59359,-54.27349
2020-12-21 02:04:01+00:00,19.0,3.17,18.0,4.08,12.49,47.59359,-54.27349
2020-12-21 02:14:01+00:00,18.0,2.4,25.0,3.06,12.49,47.59359,-54.27349
2020-12-21 02:24:01+00:00,7.0,2.57,15.0,3.16,12.49,47.59359,-54.27349
2020-12-21 02:34:01+00:00,7.0,2.41,11.0,2.79,12.49,47.59359,-54.27349
2020-12-21 02:44:01+00:00,29.0,2.89,19.0,3.4,12.49,47.59359,-54.27349
2020-12-21 02:54:01+00:00,3.0,2.24,8.0,2.76,12.49,47.59359,-54.27349
2020-12-21 03:04:01+00:00,1.0,2.38,357.0,3.09,12.49,47.59359,-54.27349
2020-12-21 03:14:01+00:00,18.0,2.31,17.0,2.9,12.41,47.59359,-54.27349
2020-12-21 03:24:01+00:00,14.0,2.69,25.0,3.11,12.41,47.59359,-54.27349
2020-12-21 03:34:01+00:00,354.0,2.94,356.0,3.65,12.41,47.59359,-54.27349
2020-12-21 03:44:01+00:00,2.0,2.38,7.0,3.15,12.41,47.59359,-54.27349
2020-12-21 03:54:01+00:00,340.0,2.46,340.0,3.21,12.41,47.59359,-54.27349
2020-12-21 04:04:01+00:00,340.0,2.03,352.0,2.36,12.41,47.59359,-54.27349
2020-12-21 04:14:01+00:00,352.0,2.31,356.0,2.77,12.41,47.59359,-54.27349
2020-12-21 04:24:01+00:00,10.0,2.41,10.0,3.19,12.41,47.59359,-54.27349
2020-12-21 04:34:01+00:00,355.0,2.49,10.0,3.36,12.41,47.59359,-54.27349
2020-12-21 04:44:01+00:00,356.0,2.32,358.0,2.86,12.41,47.59359,-54.27349
2020-12-21 04:54:01+00:00,26.0,2.14,37.0,2.65,12.41,47.59359,-54.27349
2020-12-21 05:04:01+00:00,9.0,2.54,353.0,3.33,12.41,47.59359,-54.27349
2020-12-21 05:14:01+00:00,359.0,1.73,13.0,2.25,12.41,47.59359,-54.27349
2020-12-21 05:24:01+00:00,345.0,2.47,344.0,3.06,12.41,47.59359,-54.27349
2020-12-21 05:34:01+00:00,338.0,2.44,334.0,3.03,12.41,47.59359,-54.27349
2020-12-21 05:44:01+00:00,7.0,2.51,10.0,3.23,12.41,47.59359,-54.27349
2020-12-21 05:54:01+00:00,358.0,2.23,352.0,2.67,12.41,47.59359,-54.27349
2020-12-21 06:04:01+00:00,16.0,2.04,25.0,2.44,12.41,47.59359,-54.27349
2020-12-21 06:14:01+00:00,19.0,2.52,19.0,2.97,12.41,47.59359,-54.27349
2020-12-21 06:24:01+00:00,341.0,1.96,343.0,2.42,12.41,47.59359,-54.27349
2020-12-21 06:34:01+00:00,338.0,1.86,326.0,2.34,12.41,47.59359,-54.27349
2020-12-21 06:44:01+00:00,359.0,1.41,353.0,2.18,12.41,47.59359,-54.27349
2020-12-21 06:54:01+00:00,53.0,1.19,71.0,1.54,12.41,47.59359,-54.27349
2020-12-21 07:04:01+00:00,35.0,0.88,32.0,1.17,12.41,47.59359,-54.27349
2020-12-21 07:14:01+00:00,351.0,0.85,347.0,1.19,12.33,47.59359,-54.27349
2020-12-21 07:24:01+00:00,71.0,1.79,75.0,1.95,12.33,47.59359,-54.27349
2020-12-21 07:34:01+00:00,70.0,2.34,71.0,3.04,12.33,47.59359,-54.27349
2020-12-21 07:44:01+00:00,72.0,2.37,77.0,2.87,12.33,47.59359,-54.27349
2020-12-21 07:54:01+00:00,92.0,2.15,95.0,3.07,12.33,47.59359,-54.27349
2020-12-21 08:04:01+00:00,80.0,3.23,86.0,3.52,12.33,47.59359,-54.27349
2020-12-21 08:14:01+00:00,97.0,1.87,91.0,2.38,12.33,47.59359,-54.27349
2020-12-21 08:24:01+00:00,75.0,2.8,65.0,3.42,12.33,47.59359,-54.27349
2020-12-21 08:34:01+00:00,79.0,2.88,77.0,3.56,12.33,47.59359,-54.27349
2020-12-21 08:44:01+00:00,79.0,2.6,89.0,3.12,12.33,47.59359,-54.27349
2020-12-21 08:54:01+00:00,84.0,2.25,91.0,2.95,12.33,47.59359,-54.27349
2020-12-21 09:04:01+00:00,95.0,1.81,74.0,2.4,12.33,47.59359,-54.27349
2020-12-21 09:14:01+00:00,95.0,1.63,108.0,2.43,12.33,47.59359,-54.27349
2020-12-21 09:24:01+00:00,140.0,2.94,141.0,3.47,12.33,47.59359,-54.27349
2020-12-21 09:34:01+00:00,137.0,2.54,133.0,3.03,12.33,47.59359,-54.27349
2020-12-21 09:44:01+00:00,124.0,2.41,127.0,2.64,12.33,47.59359,-54.27349
2020-12-21 09:54:01+00:00,137.0,2.98,142.0,3.44,12.33,47.59359,-54.27349
2020-12-21 10:04:01+00:00,188.0,6.55,187.0,7.64,12.33,47.59359,-54.27349
2020-12-21 10:14:01+00:00,186.0,7.44,194.0,8.59,12.33,47.59359,-54.27349
2020-12-21 10:24:01+00:00,187.0,8.11,195.0,9.5,12.33,47.59359,-54.27349
2020-12-21 10:34:01+00:00,190.0,7.75,190.0,8.4,12.33,47.59359,-54.27349
2020-12-21 10:44:01+00:00,175.0,7.18,172.0,7.99,12.33,47.59359,-54.27349
2020-12-21 10:54:01+00:00,175.0,6.13,171.0,6.73,12.33,47.59359,-54.27349
2020-12-21 11:04:01+00:00,183.0,6.7,183.0,7.6,12.33,47.59359,-54.27349
2020-12-21 12:14:01+00:00,207.0,9.86,210.0,11.03,12.33,47.59359,-54.27349
2020-12-21 12:24:01+00:00,214.0,8.21,210.0,9.34,12.33,47.59359,-54.27349
2020-12-21 12:34:01+00:00,207.0,9.24,207.0,11.03,12.33,47.59359,-54.27349
2020-12-21 12:44:01+00:00,203.0,9.37,202.0,10.41,12.33,47.59359,-54.27349
2020-12-21 12:54:01+00:00,211.0,8.91,208.0,10.27,12.33,47.59359,-54.27349
2020-12-21 13:04:01+00:00,204.0,9.19,204.0,10.85,12.33,47.59359,-54.27349
2020-12-21 13:14:01+00:00,196.0,7.97,202.0,8.66,13.6,47.59359,-54.27349
2020-12-21 13:24:01+00:00,210.0,9.13,209.0,11.25,13.6,47.59359,-54.27349
2020-12-21 13:34:01+00:00,212.0,9.59,213.0,10.64,13.6,47.59359,-54.27349
2020-12-21 13:44:01+00:00,199.0,9.31,198.0,10.08,13.6,47.59359,-54.27349
2020-12-21 13:54:01+00:00,206.0,8.92,204.0,9.57,13.6,47.59359,-54.27349
2020-12-21 14:04:01+00:00,200.0,8.33,204.0,9.22,13.6,47.59359,-54.27349
2020-12-21 15:14:01+00:00,186.0,7.44,184.0,8.03,13.21,47.59359,-54.27349
2020-12-21 15:24:01+00:00,192.0,7.58,198.0,8.66,13.21,47.59359,-54.27349
2020-12-21 15:34:01+00:00,195.0,8.11,202.0,9.13,13.21,47.59359,-54.27349
2020-12-21 15:44:01+00:00,188.0,6.81,191.0,7.66,13.21,47.59359,-54.27349
2020-12-21 15:54:01+00:00,187.0,6.12,186.0,7.34,13.21,47.59359,-54.27349
2020-12-21 16:04:01+00:00,183.0,7.25,185.0,8.24,13.21,47.59359,-54.27349
2020-12-21 16:14:01+00:00,180.0,8.68,181.0,9.69,13.21,47.59359,-54.27349
2020-12-21 16:24:01+00:00,180.0,7.93,179.0,8.96,13.21,47.59359,-54.27349
2020-12-21 16:34:01+00:00,177.0,7.48,176.0,8.7,13.21,47.59359,-54.27349
2020-12-21 16:44:01+00:00,177.0,7.59,179.0,8.34,13.21,47.59359,-54.27349
2020-12-21 16:54:01+00:00,182.0,8.92,182.0,9.79,13.21,47.59359,-54.27349
2020-12-21 17:04:01+00:00,177.0,7.58,178.0,8.48,13.21,47.59359,-54.27349
2020-12-21 17:14:01+00:00,179.0,8.11,177.0,9.01,13.05,47.59359,-54.27349
2020-12-21 17:24:01+00:00,176.0,9.23,180.0,11.66,13.05,47.59359,-54.27349
2020-12-21 17:34:01+00:00,181.0,7.88,182.0,8.73,13.05,47.59359,-54.27349
2020-12-21 17:44:01+00:00,184.0,8.73,189.0,9.42,13.05,47.59359,-54.27349
2020-12-21 17:54:01+00:00,189.0,9.21,191.0,9.92,13.05,47.59359,-54.27349
2020-12-21 18:04:01+00:00,188.0,8.48,195.0,9.93,13.05,47.59359,-54.27349
2020-12-21 18:14:01+00:00,178.0,8.48,177.0,9.91,12.89,47.59359,-54.27349
2020-12-21 18:24:01+00:00,182.0,8.93,189.0,10.67,12.89,47.59359,-54.27349
2020-12-21 18:34:01+00:00,177.0,8.87,176.0,9.67,12.89,47.59359,-54.27349
2020-12-21 18:44:01+00:00,180.0,9.26,184.0,10.48,12.89,47.59359,-54.27349
2020-12-21 18:54:01+00:00,181.0,9.12,181.0,9.98,12.89,47.59359,-54.27349
2020-12-21 19:04:01+00:00,179.0,7.86,183.0,9.18,12.89,47.59359,-54.27349
2020-12-21 19:14:01+00:00,180.0,8.1,180.0,9.15,12.73,47.59359,-54.27349
2020-12-21 19:24:01+00:00,174.0,8.54,175.0,9.49,12.73,47.59359,-54.27349
2020-12-21 19:34:01+00:00,173.0,7.15,177.0,7.95,12.73,47.59359,-54.27349
2020-12-21 19:44:01+00:00,170.0,8.22,165.0,9.43,12.73,47.59359,-54.27349
2020-12-21 19:54:01+00:00,170.0,6.68,164.0,7.16,12.73,47.59359,-54.27349
2020-12-21 20:04:01+00:00,167.0,7.09,170.0,7.82,12.73,47.59359,-54.27349
2020-12-21 20:14:01+00:00,165.0,7.34,161.0,8.22,12.57,47.59359,-54.27349
2020-12-21 20:24:01+00:00,168.0,7.3,163.0,8.08,12.57,47.59359,-54.27349
2020-12-21 20:34:01+00:00,165.0,7.5,168.0,8.21,12.57,47.59359,-54.27349
2020-12-21 20:44:01+00:00,162.0,6.1,164.0,7.06,12.57,47.59359,-54.27349
2020-12-21 20:54:01+00:00,159.0,7.33,159.0,8.54,12.57,47.59359,-54.27349
2020-12-21 21:04:01+00:00,162.0,7.02,167.0,8.08,12.57,47.59359,-54.27349
2020-12-21 21:14:01+00:00,168.0,7.17,167.0,8.64,12.57,47.59359,-54.27349
2020-12-21 21:24:01+00:00,167.0,8.35,173.0,9.13,12.57,47.59359,-54.27349
2020-12-21 21:34:01+00:00,168.0,8.72,169.0,9.58,12.57,47.59359,-54.27349
2020-12-21 21:44:01+00:00,166.0,8.45,166.0,9.75,12.57,47.59359,-54.27349
2020-12-21 21:54:01+00:00,163.0,9.18,165.0,11.09,12.57,47.59359,-54.27349
2020-12-21 22:04:01+00:00,164.0,9.75,151.0,11.89,12.57,47.59359,-54.27349
2020-12-21 22:14:01+00:00,162.0,12.12,152.0,14.72,12.57,47.59359,-54.27349
2020-12-21 22:24:01+00:00,160.0,11.32,162.0,12.75,12.57,47.59359,-54.27349
2020-12-21 22:34:01+00:00,161.0,11.77,156.0,13.1,12.57,47.59359,-54.27349
2020-12-21 22:44:01+00:00,162.0,11.98,162.0,13.56,12.57,47.59359,-54.27349
2020-12-21 22:54:01+00:00,162.0,12.77,167.0,15.11,12.57,47.59359,-54.27349
2020-12-21 23:04:01+00:00,159.0,15.02,163.0,16.36,12.57,47.59359,-54.27349
2020-12-21 23:14:01+00:00,159.0,14.73,157.0,17.68,12.57,47.59359,-54.27349
2020-12-21 23:24:01+00:00,159.0,14.7,152.0,17.38,12.57,47.59359,-54.27349
2020-12-21 23:34:01+00:00,159.0,15.15,159.0,17.05,12.57,47.59359,-54.27349
2020-12-21 23:44:01+00:00,160.0,14.08,161.0,17.4,12.57,47.59359,-54.27349
2020-12-21 23:54:01+00:00,161.0,14.98,159.0,17.72,12.57,47.59359,-54.27349
